******** Week 145 almanac for PRN-1 ******** ID: 1 Health: 0 Eccentricity: 0.01127052307 Time of Applicability(s): 405504 Orbital Inclination(rad): 0.9864119646 Rate of Right Ascen(r/s): -7.977475151e-09 SQRT(A) (m 1/2): 5153.623047 Right Ascen at Week(rad): -1.411555939 Argument of Perigee(rad): 0.8820041242 Mean Anom(rad): 2.511740368 Af0(s): 0.000357241626 Af1(s/s): -1.091394e-11 week: 145 ******** Week 145 almanac for PRN-2 ******** ID: 2 Health: 0 Eccentricity: 0.02069282532 Time of Applicability(s): 405504 Orbital Inclination(rad): 0.9647624623 Rate of Right Ascen(r/s): -8.103194673e-09 SQRT(A) (m 1/2): 5153.626953 Right Ascen at Week(rad): -1.500332081 Argument of Perigee(rad): -1.454269964 Mean Anom(rad): 2.670935441 Af0(s): -0.0005132522095 Af1(s/s): 0 week: 145 ******** Week 145 almanac for PRN-3 ******** ID: 3 Health: 0 Eccentricity: 0.003867149353 Time of Applicability(s): 405504 Orbital Inclination(rad): 0.9725102637 Rate of Right Ascen(r/s): -7.977475151e-09 SQRT(A) (m 1/2): 5153.648926 Right Ascen at Week(rad): -0.375976594 Argument of Perigee(rad): 0.9725445689 Mean Anom(rad): 1.346346775 Af0(s): -6.783068848e-05 Af1(s/s): -1.455192e-11 week: 145 ******** Week 145 almanac for PRN-4 ******** ID: 4 Health: 0 Eccentricity: 0.001654624939 Time of Applicability(s): 405504 Orbital Inclination(rad): 0.9611851712 Rate of Right Ascen(r/s): -7.668890868e-09 SQRT(A) (m 1/2): 5153.617188 Right Ascen at Week(rad): 0.7047851513 Argument of Perigee(rad): -3.099799543 Mean Anom(rad): -1.954408371 Af0(s): -0.0001529958862 Af1(s/s): 3.637979e-12 week: 145 ******** Week 145 almanac for PRN-5 ******** ID: 5 Health: 0 Eccentricity: 0.00589132309 Time of Applicability(s): 405504 Orbital Inclination(rad): 0.9594834112 Rate of Right Ascen(r/s): -8.126052768e-09 SQRT(A) (m 1/2): 5153.601562 Right Ascen at Week(rad): -0.4160222561 Argument of Perigee(rad): 1.011798898 Mean Anom(rad): -1.12373006 Af0(s): -5.426455078e-05 Af1(s/s): 0 week: 145 ******** Week 145 almanac for PRN-6 ******** ID: 6 Health: 0 Eccentricity: 0.002648353577 Time of Applicability(s): 405504 Orbital Inclination(rad): 0.985794777 Rate of Right Ascen(r/s): -7.966046103e-09 SQRT(A) (m 1/2): 5153.606445 Right Ascen at Week(rad): -1.419829174 Argument of Perigee(rad): -0.9940708584 Mean Anom(rad): 2.874433572 Af0(s): 0.0001394297485 Af1(s/s): 1.091394e-11 week: 145 ******** Week 145 almanac for PRN-7 ******** ID: 7 Health: 0 Eccentricity: 0.01544189453 Time of Applicability(s): 405504 Orbital Inclination(rad): 0.9505491716 Rate of Right Ascen(r/s): -8.057478483e-09 SQRT(A) (m 1/2): 5153.637695 Right Ascen at Week(rad): 1.724167442 Argument of Perigee(rad): -2.294762605 Mean Anom(rad): 1.848114288 Af0(s): 0.0002396684326 Af1(s/s): 3.637979e-12 week: 145 ******** Week 145 almanac for PRN-8 ******** ID: 8 Health: 0 Eccentricity: 0.007166385651 Time of Applicability(s): 405504 Orbital Inclination(rad): 0.9652478234 Rate of Right Ascen(r/s): -7.657461821e-09 SQRT(A) (m 1/2): 5153.666504 Right Ascen at Week(rad): -2.491081437 Argument of Perigee(rad): 0.08469776054 Mean Anom(rad): -1.479297145 Af0(s): -4.220576172e-05 Af1(s/s): 0 week: 145 ******** Week 145 almanac for PRN-9 ******** ID: 9 Health: 0 Eccentricity: 0.002324104309 Time of Applicability(s): 405504 Orbital Inclination(rad): 0.9542043601 Rate of Right Ascen(r/s): -7.737465153e-09 SQRT(A) (m 1/2): 5153.591797 Right Ascen at Week(rad): 0.6520451991 Argument of Perigee(rad): 1.858987725 Mean Anom(rad): -1.140593737 Af0(s): -0.0002826278686 Af1(s/s): 0 week: 145 ******** Week 145 almanac for PRN-10 ******** ID: 10 Health: 0 Eccentricity: 0.007447719574 Time of Applicability(s): 405504 Orbital Inclination(rad): 0.9723424845 Rate of Right Ascen(r/s): -7.954617056e-09 SQRT(A) (m 1/2): 5153.632812 Right Ascen at Week(rad): -0.378774536 Argument of Perigee(rad): -2.531647663 Mean Anom(rad): 0.4980254385 Af0(s): -0.000235900061 Af1(s/s): -1.091394e-11 week: 145 ******** Week 145 almanac for PRN-11 ******** ID: 11 Health: 255 Eccentricity: 0.0002913475037 Time of Applicability(s): 405504 Orbital Inclination(rad): 0.9615207295 Rate of Right Ascen(r/s): -8.240343243e-09 SQRT(A) (m 1/2): 5153.708008 Right Ascen at Week(rad): -1.367160378 Argument of Perigee(rad): 2.869866459 Mean Anom(rad): -1.634948632 Af0(s): -4.898883057e-05 Af1(s/s): -3.637979e-11 week: 145 ******** Week 145 almanac for PRN-12 ******** ID: 12 Health: 0 Eccentricity: 0.008598327637 Time of Applicability(s): 405504 Orbital Inclination(rad): 0.9708444564 Rate of Right Ascen(r/s): -7.783181343e-09 SQRT(A) (m 1/2): 5153.563477 Right Ascen at Week(rad): 2.836761161 Argument of Perigee(rad): 1.238162555 Mean Anom(rad): 1.186101584 Af0(s): -0.0001251099365 Af1(s/s): -7.275958e-12 week: 145 ******** Week 145 almanac for PRN-13 ******** ID: 13 Health: 0 Eccentricity: 0.005799770355 Time of Applicability(s): 405504 Orbital Inclination(rad): 0.9685734458 Rate of Right Ascen(r/s): -7.577458489e-09 SQRT(A) (m 1/2): 5153.632812 Right Ascen at Week(rad): 0.8044523323 Argument of Perigee(rad): 0.9688009967 Mean Anom(rad): -2.086876001 Af0(s): 0.0001959553223 Af1(s/s): 7.275958e-12 week: 145 ******** Week 145 almanac for PRN-14 ******** ID: 14 Health: 0 Eccentricity: 0.001340866089 Time of Applicability(s): 405504 Orbital Inclination(rad): 0.9542343207 Rate of Right Ascen(r/s): -7.920329913e-09 SQRT(A) (m 1/2): 5153.588379 Right Ascen at Week(rad): 2.805887551 Argument of Perigee(rad): 3.038369155 Mean Anom(rad): 1.228744453 Af0(s): -5.803292236e-05 Af1(s/s): -3.637979e-12 week: 145 ******** Week 145 almanac for PRN-15 ******** ID: 15 Health: 0 Eccentricity: 0.01392698288 Time of Applicability(s): 405504 Orbital Inclination(rad): 0.9301160681 Rate of Right Ascen(r/s): -7.966046103e-09 SQRT(A) (m 1/2): 5153.678223 Right Ascen at Week(rad): 0.5466997425 Argument of Perigee(rad): 1.070885621 Mean Anom(rad): -2.489093553 Af0(s): -7.084538574e-05 Af1(s/s): 3.637979e-12 week: 145 ******** Week 145 almanac for PRN-16 ******** ID: 16 Health: 0 Eccentricity: 0.01267004013 Time of Applicability(s): 405504 Orbital Inclination(rad): 0.9708085038 Rate of Right Ascen(r/s): -7.771752296e-09 SQRT(A) (m 1/2): 5153.538086 Right Ascen at Week(rad): 2.855384647 Argument of Perigee(rad): 0.6987922899 Mean Anom(rad): -0.6696897232 Af0(s): -0.0003625173462 Af1(s/s): -3.637979e-12 week: 145 ******** Week 145 almanac for PRN-17 ******** ID: 17 Health: 0 Eccentricity: 0.013692379 Time of Applicability(s): 405504 Orbital Inclination(rad): 0.9802940178 Rate of Right Ascen(r/s): -7.543171346e-09 SQRT(A) (m 1/2): 5153.70459 Right Ascen at Week(rad): -2.409592452 Argument of Perigee(rad): -1.50614106 Mean Anom(rad): -1.574810294 Af0(s): 0.000445421521 Af1(s/s): 3.637979e-12 week: 145 ******** Week 145 almanac for PRN-18 ******** ID: 18 Health: 0 Eccentricity: 0.00208902359 Time of Applicability(s): 405504 Orbital Inclination(rad): 0.9702092925 Rate of Right Ascen(r/s): -8.126052768e-09 SQRT(A) (m 1/2): 5153.575684 Right Ascen at Week(rad): -1.403350864 Argument of Perigee(rad): 3.112332046 Mean Anom(rad): 2.697903318 Af0(s): 0.0002034920654 Af1(s/s): -7.275958e-12 week: 145 ******** Week 145 almanac for PRN-19 ******** ID: 19 Health: 0 Eccentricity: 0.008939743042 Time of Applicability(s): 405504 Orbital Inclination(rad): 0.9789997215 Rate of Right Ascen(r/s): -7.577458489e-09 SQRT(A) (m 1/2): 5153.640137 Right Ascen at Week(rad): -2.364690183 Argument of Perigee(rad): 1.998260522 Mean Anom(rad): 0.8260797387 Af0(s): 8.516519775e-05 Af1(s/s): 3.637979e-12 week: 145 ******** Week 145 almanac for PRN-20 ******** ID: 20 Health: 0 Eccentricity: 0.005269527435 Time of Applicability(s): 405504 Orbital Inclination(rad): 0.9416089398 Rate of Right Ascen(r/s): -8.354633718e-09 SQRT(A) (m 1/2): 5153.674316 Right Ascen at Week(rad): -0.5295525637 Argument of Perigee(rad): 3.107976904 Mean Anom(rad): -2.719572669 Af0(s): 0.0004084914795 Af1(s/s): 0 week: 145 ******** Week 145 almanac for PRN-21 ******** ID: 21 Health: 0 Eccentricity: 0.02455043793 Time of Applicability(s): 405504 Orbital Inclination(rad): 0.9590160264 Rate of Right Ascen(r/s): -8.114623721e-09 SQRT(A) (m 1/2): 5153.541016 Right Ascen at Week(rad): -1.501799025 Argument of Perigee(rad): -1.022527775 Mean Anom(rad): -1.410685959 Af0(s): 0.0001236025879 Af1(s/s): 0 week: 145 ******** Week 145 almanac for PRN-22 ******** ID: 22 Health: 255 Eccentricity: 0.006910324097 Time of Applicability(s): 405504 Orbital Inclination(rad): 0.9383672069 Rate of Right Ascen(r/s): -8.366062766e-09 SQRT(A) (m 1/2): 5153.572754 Right Ascen at Week(rad): -0.4837713265 Argument of Perigee(rad): -0.8541831206 Mean Anom(rad): -2.675572962 Af0(s): -0.000326340979 Af1(s/s): 7.275958e-12 week: 145 ******** Week 145 almanac for PRN-23 ******** ID: 23 Health: 0 Eccentricity: 0.00195646286 Time of Applicability(s): 405504 Orbital Inclination(rad): 0.9673810154 Rate of Right Ascen(r/s): -8.023191341e-09 SQRT(A) (m 1/2): 5153.651367 Right Ascen at Week(rad): -0.4034919999 Argument of Perigee(rad): 2.923035596 Mean Anom(rad): 1.842224041 Af0(s): 7.536743164e-06 Af1(s/s): -3.637979e-12 week: 145 ******** Week 145 almanac for PRN-24 ******** ID: 24 Health: 0 Eccentricity: 0.01229476929 Time of Applicability(s): 405504 Orbital Inclination(rad): 0.9340289175 Rate of Right Ascen(r/s): -8.228914196e-09 SQRT(A) (m 1/2): 5153.631836 Right Ascen at Week(rad): 1.641822334 Argument of Perigee(rad): 0.8020895675 Mean Anom(rad): 2.815310522 Af0(s): 0.0002185655518 Af1(s/s): 0 week: 145 ******** Week 145 almanac for PRN-25 ******** ID: 25 Health: 0 Eccentricity: 0.01039505005 Time of Applicability(s): 405504 Orbital Inclination(rad): 0.9582070913 Rate of Right Ascen(r/s): -7.920329913e-09 SQRT(A) (m 1/2): 5153.665039 Right Ascen at Week(rad): 2.760382325 Argument of Perigee(rad): 0.9728130905 Mean Anom(rad): 0.9507692323 Af0(s): 0.0002163045288 Af1(s/s): 7.275958e-12 week: 145 ******** Week 145 almanac for PRN-26 ******** ID: 26 Health: 0 Eccentricity: 0.006801128387 Time of Applicability(s): 405504 Orbital Inclination(rad): 0.9390263393 Rate of Right Ascen(r/s): -8.137481816e-09 SQRT(A) (m 1/2): 5153.624512 Right Ascen at Week(rad): 2.713888027 Argument of Perigee(rad): 0.3525519284 Mean Anom(rad): 0.3015837689 Af0(s): 0.0001394297485 Af1(s/s): 3.637979e-12 week: 145 ******** Week 145 almanac for PRN-27 ******** ID: 27 Health: 0 Eccentricity: 0.01006269455 Time of Applicability(s): 405504 Orbital Inclination(rad): 0.9739303943 Rate of Right Ascen(r/s): -7.600316584e-09 SQRT(A) (m 1/2): 5153.608887 Right Ascen at Week(rad): -2.471871473 Argument of Perigee(rad): 0.630967569 Mean Anom(rad): -1.546020815 Af0(s): 6.255496826e-05 Af1(s/s): 2.182787e-11 week: 145 ******** Week 145 almanac for PRN-29 ******** ID: 29 Health: 0 Eccentricity: 0.001778125763 Time of Applicability(s): 405504 Orbital Inclination(rad): 0.982277407 Rate of Right Ascen(r/s): -7.543171346e-09 SQRT(A) (m 1/2): 5153.724121 Right Ascen at Week(rad): -2.396636756 Argument of Perigee(rad): 2.282557796 Mean Anom(rad): -1.433799409 Af0(s): -0.000371561438 Af1(s/s): -3.637979e-12 week: 145 ******** Week 145 almanac for PRN-30 ******** ID: 30 Health: 0 Eccentricity: 0.005424976349 Time of Applicability(s): 405504 Orbital Inclination(rad): 0.9357186932 Rate of Right Ascen(r/s): -8.228914196e-09 SQRT(A) (m 1/2): 5153.522949 Right Ascen at Week(rad): 1.737706245 Argument of Perigee(rad): -2.750991187 Mean Anom(rad): 1.866149797 Af0(s): -0.0004017084106 Af1(s/s): -3.637979e-12 week: 145 ******** Week 145 almanac for PRN-31 ******** ID: 31 Health: 0 Eccentricity: 0.01046657562 Time of Applicability(s): 405504 Orbital Inclination(rad): 0.9547855951 Rate of Right Ascen(r/s): -8.023191341e-09 SQRT(A) (m 1/2): 5153.614258 Right Ascen at Week(rad): 1.742165126 Argument of Perigee(rad): 0.3678112173 Mean Anom(rad): 1.397138916 Af0(s): -0.0001273709595 Af1(s/s): 0 week: 145 ******** Week 145 almanac for PRN-32 ******** ID: 32 Health: 0 Eccentricity: 0.005439281464 Time of Applicability(s): 405504 Orbital Inclination(rad): 0.9580632806 Rate of Right Ascen(r/s): -7.680319916e-09 SQRT(A) (m 1/2): 5153.72168 Right Ascen at Week(rad): 0.6631309816 Argument of Perigee(rad): -2.371433557 Mean Anom(rad): -0.869764111 Af0(s): -4.220576172e-05 Af1(s/s): -7.275958e-12 week: 145